ONEWEB-0092 (45437 NORAD) Tracking and Keplerian Element Data

This shows tracking and keplerian element data for the satellite.

Feedback or suggestion? Click here.




ElementValue
Catalog45437
NameONEWEB-0092
Epoch Orbit157
Epoch Day93.91667824
Epoch Year2020
RAAN134.5876
Inclination87.3995
Eccentricity0.0020407
Argument of Perigee257.6774
Mean Anonmoly286.6209
Mean Motion15.36810431
Decay Rate0.00045124
L11 45437U 20020P 20093.91667824 .00045124 00000-0 12406-2 0 9995
L22 45437 87.3995 134.5876 0020407 257.6774 286.6209 15.36810431 1579

Live tracking and technical data element details for ONEWEB-0092 (NORAD 45437). ONEWEB-0092 can be tracked NOW for your location showing map with azimuth and elevation plus other details from your city location.

Track the satellite on the map from your city or location and see movement details for azimuth, elevation, latitude, longitude, range, height, and movement on the map or in text.







IsCatalogInMostPopularTable: catalog: 45437, numindb: 3
Update: records affected: 1



GetName: 45437 ONEWEB-0092

Hit Count: updated at: Tue, 07 Apr 2020 15:49:38 GMT